Torna al catalogo

COSMOS 2401 DEB

LostPO
NORAD 29419·DEBRIS·🇷🇺 Russia

Lanciato Aug 19, 2003 da Plesetsk Cosmodrome

Loading…

Prossimi Passaggi (prossime 24 ore)

TLE

ObsoletoSource: Space-Track

Epoca: Sep 26, 2013, 07:34 UTC

1 29419U 03037D   13269.31584321 -.00000006  00000-0 -11172-3 0  9999
2 29419 082.4743 001.2945 0025061 143.0229 343.4308 12.45652785455858

Traccia COSMOS 2401 DEB in tempo reale con AllMySat

Download on the App Store